TimeHST,TemperatureF,Dew PointF,Humidity,Sea Level PressureIn,VisibilityMPH,Wind Direction,Wind SpeedMPH,Gust SpeedMPH,PrecipitationIn,Events,Conditions,WindDirDegrees,DateUTC
12:54 AM,75.0,69.1,82,29.91,10.0,SSE,5.8,-,N/A,,Overcast,160,2012-10-07 10:54:00
1:54 AM,75.0,68.0,79,29.90,10.0,SSE,6.9,-,N/A,,Partly Cloudy,160,2012-10-07 11:54:00
2:54 AM,73.9,69.1,85,29.89,9.0,South,5.8,-,N/A,,Clear,180,2012-10-07 12:54:00
3:22 AM,75.2,69.8,83,29.89,9.0,South,3.5,-,N/A,,Mostly Cloudy,170,2012-10-07 13:22:00
3:37 AM,75.2,69.8,83,29.88,9.0,SSE,3.5,-,N/A,,Scattered Clouds,160,2012-10-07 13:37:00
3:50 AM,75.2,69.8,83,29.88,9.0,South,6.9,-,0.00,Rain,Light Rain,180,2012-10-07 13:50:00
3:54 AM,75.0,70.0,84,29.89,10.0,South,6.9,-,0.00,,Mostly Cloudy,170,2012-10-07 13:54:00
4:02 AM,75.2,69.8,83,29.88,9.0,South,5.8,-,N/A,,Mostly Cloudy,170,2012-10-07 14:02:00
4:29 AM,75.2,69.8,83,29.88,9.0,Calm,Calm,-,N/A,,Overcast,0,2012-10-07 14:29:00
4:54 AM,75.0,69.1,82,29.89,8.0,South,4.6,-,0.00,Rain,Light Rain,180,2012-10-07 14:54:00
5:02 AM,73.4,69.8,88,29.88,7.0,SSE,3.5,-,0.00,Rain,Light Rain,160,2012-10-07 15:02:00
5:54 AM,73.0,71.1,93,29.89,5.0,South,3.5,-,0.01,,Scattered Clouds,170,2012-10-07 15:54:00
6:54 AM,73.0,69.1,87,29.90,6.0,South,5.8,-,N/A,,Scattered Clouds,190,2012-10-07 16:54:00
7:54 AM,73.9,71.1,91,29.92,5.0,SE,3.5,-,N/A,,Scattered Clouds,140,2012-10-07 17:54:00
8:54 AM,77.0,70.0,79,29.93,6.0,SSE,8.1,-,N/A,,Scattered Clouds,150,2012-10-07 18:54:00
9:54 AM,79.0,70.0,74,29.94,7.0,SSE,9.2,-,N/A,,Scattered Clouds,150,2012-10-07 19:54:00
10:01 AM,78.8,69.8,74,29.93,6.0,SSE,10.4,-,N/A,,Mostly Cloudy,160,2012-10-07 20:01:00
10:54 AM,80.1,70.0,71,29.93,8.0,SE,10.4,-,N/A,,Mostly Cloudy,130,2012-10-07 20:54:00
11:01 AM,80.6,69.8,70,29.92,9.0,SE,10.4,-,N/A,,Overcast,140,2012-10-07 21:01:00
11:54 AM,82.0,68.0,62,29.91,9.0,South,12.7,-,N/A,,Mostly Cloudy,170,2012-10-07 21:54:00
12:02 PM,82.4,68.0,62,29.90,9.0,SSE,12.7,-,N/A,,Mostly Cloudy,160,2012-10-07 22:02:00
12:54 PM,84.0,68.0,58,29.89,9.0,South,12.7,-,N/A,,Scattered Clouds,170,2012-10-07 22:54:00
1:54 PM,82.0,66.9,60,29.88,9.0,South,11.5,-,N/A,,Scattered Clouds,180,2012-10-07 23:54:00
2:54 PM,81.0,69.1,67,29.87,9.0,SE,12.7,-,N/A,,Scattered Clouds,130,2012-10-08 00:54:00
3:54 PM,79.0,68.0,69,29.87,8.0,South,12.7,-,N/A,,Scattered Clouds,170,2012-10-08 01:54:00
4:54 PM,80.1,68.0,67,29.88,8.0,South,11.5,-,N/A,,Scattered Clouds,170,2012-10-08 02:54:00
5:54 PM,78.1,71.1,79,29.89,9.0,SE,10.4,-,N/A,,Scattered Clouds,140,2012-10-08 03:54:00
6:54 PM,77.0,71.1,82,29.91,10.0,South,8.1,-,N/A,,Scattered Clouds,170,2012-10-08 04:54:00
7:43 PM,77.0,71.6,83,29.92,10.0,SSE,10.4,-,N/A,,Mostly Cloudy,160,2012-10-08 05:43:00
7:54 PM,77.0,71.1,82,29.93,10.0,South,11.5,-,N/A,,Mostly Cloudy,170,2012-10-08 05:54:00
8:05 PM,77.0,69.8,78,29.93,10.0,South,9.2,-,N/A,,Scattered Clouds,170,2012-10-08 06:05:00
8:43 PM,75.2,71.6,89,29.94,10.0,South,9.2,-,N/A,,Mostly Cloudy,170,2012-10-08 06:43:00
8:54 PM,75.9,71.1,85,29.95,10.0,SSE,8.1,-,N/A,,Scattered Clouds,160,2012-10-08 06:54:00
9:25 PM,75.2,69.8,83,29.94,10.0,SSE,11.5,-,N/A,,Mostly Cloudy,150,2012-10-08 07:25:00
9:54 PM,75.9,70.0,82,29.95,10.0,SSE,11.5,-,N/A,,Overcast,160,2012-10-08 07:54:00
10:12 PM,75.2,69.8,83,29.95,10.0,SSE,9.2,-,N/A,,Unknown,150,2012-10-08 08:12:00
10:42 PM,75.2,69.8,83,29.94,10.0,SSE,11.5,-,N/A,,Overcast,160,2012-10-08 08:42:00
10:54 PM,75.9,70.0,82,29.95,10.0,SSE,13.8,-,N/A,,Overcast,160,2012-10-08 08:54:00
11:25 PM,75.2,69.8,83,29.94,10.0,SSE,12.7,-,N/A,,Mostly Cloudy,150,2012-10-08 09:25:00
11:54 PM,75.9,70.0,82,29.94,10.0,SE,9.2,-,N/A,,Mostly Cloudy,140,2012-10-08 09:54:00